Weather History for KPRN - January, 2014

Change the Weather History Date:

Tuesday, January 28, 2014

  Actual Average Record
Temperature  
Mean Temperature 30 °F -  
Max Temperature 36 °F 59 °F 77 °F (1957)
Min Temperature 21 °F 35 °F 12 °F (1986)
Degree Days  
Heating Degree Days 36    
Moisture  
Dew Point 19 °F    
Average Humidity 76    
Maximum Humidity 93    
Minimum Humidity 31    
Precipitation  
Precipitation 0.00 in - - ()
Sea Level Pressure  
Sea Level Pressure 30.18 in    
Wind  
Wind Speed 12 mph (North)    
Max Wind Speed 16 mph    
Max Gust Speed 30 mph    
Visibility 5 miles    
Events Snow    
Averages and records for this station are not official NWS values.
T = Trace of Precipitation, MM = Missing Value Source: NWS Daily Summary

Daily Weather History Graph

Daily Weather History Graph

Search for Another Location

Airport or City:

Trip Planner

Search our weather history database for the weather conditions in past years. The results will help you decide how hot, cold, wet, or windy it might be!

Date:

Astronomy

Jan. 28, 2014 Rise Set
Actual Time 6:42 AM CST 5:17 PM CST
Civil Twilight 6:16 AM CST 5:42 PM CST
Nautical Twilight 5:46 AM CST 6:12 PM CST
Astronomical Twilight 5:18 AM CST 6:41 PM CST
Moon 4:20 AM CST 3:08 PM CST
Length of Visible Light 11h 26m
Length of Day
10h 34m
Waning Crescent, 7% of the Moon is Illuminated
Jan 28
Waning Crescent
Jan 30
New
Feb 6
First Quarter
Feb 14
Full
Feb 22
Last Quarter

Hourly Weather History & Observations

Time (CST) Temp. Windchill Dew Point Humidity Pressure Visibility Wind Dir Wind Speed Gust Speed Precip Events Conditions
12:56 AM 36.0 °F 28.0 °F 8.1 °F 31% 30.12 in 10.0 mi NNE 11.5 mph 18.4 mph N/A   Overcast
1:56 AM 34.0 °F 23.8 °F 6.1 °F 31% 30.10 in 10.0 mi NNE 16.1 mph 21.9 mph N/A   Clear
3:56 AM 32.0 °F 24.2 °F 6.1 °F 34% 30.11 in 10.0 mi NNE 9.2 mph - N/A   Overcast
4:56 AM 32.0 °F 22.5 °F 5.0 °F 32% 30.12 in 10.0 mi North 12.7 mph - N/A   Overcast
5:56 AM 30.9 °F 23.5 °F 6.1 °F 35% 30.15 in 10.0 mi North 8.1 mph - N/A   Overcast
6:56 AM 30.9 °F 21.2 °F 6.1 °F 35% 30.16 in 10.0 mi North 12.7 mph - N/A   Overcast
7:56 AM 30.9 °F 22.8 °F 6.1 °F 35% 30.19 in 10.0 mi North 9.2 mph 18.4 mph N/A   Overcast
8:56 AM 30.0 °F 19.5 °F 9.0 °F 41% 30.21 in 10.0 mi North 13.8 mph - N/A   Overcast
9:39 AM 28.4 °F 19.1 °F 17.6 °F 64% 30.23 in 9.0 mi North 10.4 mph - 0.00 in   Overcast
9:56 AM 27.0 °F 16.1 °F 19.0 °F 72% 30.25 in 8.0 mi North 12.7 mph - 0.00 in   Overcast
10:56 AM 27.0 °F 16.7 °F 21.0 °F 78% 30.22 in 6.0 mi North 11.5 mph - 0.00 in   Overcast
11:45 AM 26.6 °F 16.8 °F 23.0 °F 86% 30.20 in 1.8 mi NNW 10.4 mph - N/A   Overcast
11:56 AM 26.1 °F 16.2 °F 23.0 °F 88% 30.21 in 1.5 mi North 10.4 mph - N/A   Overcast
12:07 PM 26.6 °F 16.2 °F 23.0 °F 86% 30.20 in 2.0 mi NNW 11.5 mph - N/A   Overcast
12:19 PM 26.6 °F 17.5 °F 23.0 °F 86% 30.19 in 4.0 mi North 9.2 mph - N/A   Overcast
12:48 PM 26.6 °F 15.7 °F 24.8 °F 93% 30.15 in 4.0 mi North 12.7 mph - N/A   Overcast
12:56 PM 27.0 °F 16.7 °F 24.1 °F 89% 30.16 in 3.0 mi North 11.5 mph - N/A   Overcast
1:10 PM 26.6 °F 17.5 °F 23.0 °F 86% 30.15 in 2.0 mi North 9.2 mph - N/A   Overcast
1:17 PM 26.6 °F 16.2 °F 24.8 °F 93% 30.15 in 3.0 mi North 11.5 mph - N/A   Overcast
1:19 PM 26.6 °F 16.8 °F 24.8 °F 93% 30.15 in 2.5 mi North 10.4 mph - N/A   Overcast
1:27 PM 26.6 °F 16.8 °F 23.0 °F 86% 30.15 in 2.5 mi North 10.4 mph - N/A   Overcast
1:35 PM 26.6 °F 15.7 °F 23.0 °F 86% 30.15 in 3.0 mi North 12.7 mph - N/A   Overcast
1:43 PM 26.6 °F 14.7 °F 23.0 °F 86% 30.14 in 2.0 mi North 15.0 mph 19.6 mph N/A   Overcast
1:56 PM 27.0 °F 16.7 °F 23.0 °F 85% 30.15 in 4.0 mi North 11.5 mph 19.6 mph N/A   Overcast
2:27 PM 26.6 °F 16.2 °F 23.0 °F 86% 30.14 in 2.5 mi North 11.5 mph - N/A   Overcast
2:36 PM 26.6 °F 16.8 °F 23.0 °F 86% 30.14 in 1.8 mi North 10.4 mph - N/A   Overcast
2:54 PM 26.6 °F 15.2 °F 21.2 °F 80% 30.15 in 3.0 mi North 13.8 mph 17.3 mph N/A   Overcast
2:56 PM 26.1 °F 15.0 °F 21.9 °F 84% 30.16 in 3.0 mi North 12.7 mph 19.6 mph N/A   Overcast
3:01 PM 26.6 °F 16.2 °F 23.0 °F 86% 30.14 in 2.5 mi North 11.5 mph 19.6 mph N/A   Overcast
3:09 PM 26.6 °F 16.2 °F 21.2 °F 80% 30.15 in 3.0 mi North 11.5 mph 19.6 mph N/A   Overcast
3:27 PM 26.6 °F 16.8 °F 23.0 °F 86% 30.16 in 1.8 mi NNW 10.4 mph - N/A   Overcast
3:35 PM 26.6 °F 17.5 °F 21.2 °F 80% 30.16 in 1.2 mi NNW 9.2 mph - N/A   Overcast
3:56 PM 25.0 °F 14.8 °F 21.9 °F 88% 30.18 in 1.5 mi North 10.4 mph 18.4 mph N/A   Overcast
4:09 PM 24.8 °F 14.6 °F 21.2 °F 86% 30.17 in 1.2 mi North 10.4 mph - N/A   Overcast
4:17 PM 24.8 °F 15.3 °F 21.2 °F 86% 30.16 in 1.0 mi North 9.2 mph - N/A   Overcast
4:25 PM 24.8 °F 15.3 °F 21.2 °F 86% 30.16 in 3.0 mi North 9.2 mph - N/A   Overcast
4:52 PM 24.8 °F 14.0 °F 19.4 °F 80% 30.18 in 10.0 mi North 11.5 mph 21.9 mph N/A   Overcast
4:56 PM 25.0 °F 13.6 °F 21.0 °F 85% 30.20 in 10.0 mi North 12.7 mph 19.6 mph N/A   Overcast
5:33 PM 24.8 °F 13.4 °F 19.4 °F 80% 30.19 in 1.8 mi North 12.7 mph 18.4 mph N/A Snow Light Snow
5:41 PM 23.0 °F 12.4 °F 19.4 °F 86% 30.19 in 1.8 mi NNW 10.4 mph 18.4 mph N/A Snow Light Snow
5:47 PM 23.0 °F 10.1 °F 19.4 °F 86% 30.19 in 2.0 mi North 15.0 mph - N/A Snow Light Snow
5:56 PM 23.0 °F 12.4 °F 19.0 °F 85% 30.21 in 2.5 mi North 10.4 mph - N/A Snow Light Snow
6:04 PM 23.0 °F 11.1 °F 19.4 °F 86% 30.20 in 1.8 mi NNW 12.7 mph - N/A Snow Light Snow
6:18 PM 23.0 °F - 19.4 °F 86% 30.20 in 2.5 mi North - - N/A Snow Light Snow
6:20 PM 23.0 °F 11.1 °F 19.4 °F 86% 30.20 in 3.0 mi North 12.7 mph 29.9 mph N/A Snow Light Snow
6:56 PM 23.0 °F 10.1 °F 18.0 °F 81% 30.24 in 10.0 mi North 15.0 mph 21.9 mph N/A   Overcast
7:56 PM 23.0 °F 11.7 °F 18.0 °F 81% 30.27 in 10.0 mi North 11.5 mph - N/A   Overcast
8:47 PM 23.0 °F 14.7 °F 17.6 °F 80% 30.26 in 9.0 mi North 6.9 mph - N/A Snow Light Snow
9:56 PM 23.0 °F 11.7 °F 16.0 °F 74% 30.29 in 10.0 mi NNW 11.5 mph - N/A   Overcast
10:56 PM 23.0 °F 12.4 °F 16.0 °F 74% 30.30 in 10.0 mi North 10.4 mph - N/A   Overcast
11:56 PM 21.9 °F 8.7 °F 14.0 °F 72% 30.29 in 10.0 mi North 15.0 mph 20.7 mph N/A   Partly Cloudy